FW8270 Weather Reports


time (UTC)temp
C
wind
direction
speed
KPH
gust
KPH
rain 1hr
cm
rain 24hr
cm
rain mn
cm
humidity
%
barometer
mb
20260505074536 13 0 0.0 1.6 0.00 0.00 0.00 81 1014.0
20260505073042 13 0 0.0 1.6 0.00 0.00 0.00 80 1013.9
20260505071540 14 165 0.0 1.6 0.00 0.00 0.00 79 1013.8
20260505070054 15 0 0.0 6.4 0.00 0.00 0.00 78 1013.6
20260505064540 15 0 0.0 1.6 0.00 0.00 0.00 77 1013.2
20260505063038 15 0 0.0 4.8 0.00 0.00 0.00 76 1013.1
20260505061552 15 175 0.0 3.2 0.00 0.00 0.00 77 1013.1
20260505060048 15 0 0.0 0.0 0.00 0.00 0.00 76 1012.8
20260505054547 16 0 0.0 0.0 0.00 0.00 0.00 73 1012.9
20260505053042 16 0 0.0 1.6 0.00 0.00 0.00 72 1012.8
20260505051541 16 0 0.0 1.6 0.00 0.00 0.00 70 1012.5
20260505041544 17 0 0.0 0.0 0.00 0.00 0.00 62 1012.0
20260505040051 18 0 0.0 1.6 0.00 0.00 0.00 60 1011.8
20260505034542 19 0 0.0 3.2 0.00 0.00 0.00 57 1011.6
20260505033032 20 0 0.0 3.2 0.00 0.00 0.00 56 1011.3
20260505031549 20 42 0.0 3.2 0.00 0.00 0.00 55 1011.1
20260505030042 21 360 0.0 4.8 0.00 0.00 0.00 53 1011.1
20260505024537 22 355 0.0 3.2 0.00 0.00 0.00 49 1010.8
20260505023037 22 319 1.6 8.0 0.00 0.00 0.00 47 1010.8
20260505021537 23 329 1.6 9.7 0.00 0.00 0.00 47 1010.7
20260505020040 23 0 0.0 4.8 0.00 0.00 0.00 49 1010.8
20260505014544 23 0 0.0 8.0 0.00 0.00 0.00 48 1010.9
20260505013037 24 355 0.0 11.3 0.00 0.00 0.00 47 1010.9
20260505011539 25 0 1.6 8.0 0.00 0.00 0.00 44 1010.8
20260505010045 25 0 1.6 6.4 0.00 0.00 0.00 39 1010.8
20260505004543 25 329 0.0 6.4 0.00 0.00 0.00 40 1010.7
20260505003042 25 197 0.0 9.7 0.00 0.00 0.00 43 1010.7
20260505001541 25 5 1.6 4.8 0.00 0.00 0.00 41 1010.9
20260505000048 25 63 0.0 8.0 0.00 0.00 0.00 44 1010.8
20260504234536 25 93 0.0 4.8 0.00 0.00 0.00 43 1011.1
20260504233041 25 311 1.6 8.0 0.00 0.00 0.00 43 1011.1
20260504231532 25 130 0.0 6.4 0.00 0.00 0.00 43 1011.1
20260504230037 25 145 0.0 8.0 0.00 0.00 0.00 43 1011.1
20260504224537 25 0 0.0 6.4 0.00 0.00 0.00 42 1011.2
20260504223042 25 0 0.0 6.4 0.00 0.00 0.00 43 1011.2
20260504221532 25 0 0.0 8.0 0.00 0.00 0.00 45 1011.6
20260504220046 25 0 0.0 4.8 0.00 0.00 0.00 45 1011.7
20260504214538 25 199 0.0 3.2 0.00 0.00 0.00 43 1011.8
20260504213045 25 355 1.6 8.0 0.00 0.00 0.00 40 1011.8
20260504211543 25 144 1.6 8.0 0.00 0.00 0.00 39 1012.0
20260504210034 25 186 1.6 11.3 0.00 0.00 0.00 38 1012.0
20260504204543 25 161 6.4 16.1 0.00 0.00 0.00 38 1011.9
20260504203037 24 234 0.0 4.8 0.00 0.00 0.00 39 1011.9
20260504201533 24 167 0.0 4.8 0.00 0.00 0.00 40 1012.0
20260504200041 24 0 0.0 3.2 0.00 0.00 0.00 42 1012.1
20260504194534 25 0 0.0 8.0 0.00 0.00 0.00 43 1012.0
20260504193053 25 0 3.2 12.9 0.00 0.00 0.00 41 1012.1
20260504191537 24 0 0.0 6.4 0.00 0.00 0.00 44 1012.1
20260504190038 24 288 0.0 6.4 0.00 0.00 0.00 45 1012.2
20260504184534 23 0 0.0 9.7 0.00 0.00 0.00 43 1012.4
20260504183055 23 294 0.0 6.4 0.00 0.00 0.00 45 1012.5
20260504181538 23 332 1.6 9.7 0.00 0.00 0.00 44 1012.5
20260504180058 23 14 1.6 8.0 0.00 0.00 0.00 45 1012.3
20260504174536 23 0 1.6 6.4 0.00 0.00 0.00 49 1012.4
20260504173032 22 75 0.0 3.2 0.00 0.00 0.00 53 1012.3
20260504171538 21 186 0.0 9.7 0.00 0.00 0.00 56 1012.4
20260504081537 12 0 0.0 0.0 0.00 0.00 0.00 74 1011.1